Find Starlink 5109

NORAD ID: 54002 Int'l Des: 2022-125 Owner: SPXS Country: US Constellation: starlink operational
LEOCIRCULAR

リアルタイム位置

3D地球を読み込み中...

Starlink 5109について

説明を読み込み中...

次回通過

Passes for default location (London). Set your location on the main map for personalized predictions.

高度履歴

Loading altitude history...

軌道要素

1 54002U 22125AQ 26107.15367984 -.00000052 00000-0 14834-4 0 9994
2 54002 53.2190 31.1840 0001638 89.5532 270.5648 15.08835372195414
Epoch: Apr 17, 2026 • Age: 16 hours

現在のステータス

高度 549.5 km
速度 7.59 km/s
衛星直下点 -29.71°S, 134.07°W
打ち上げ日 Oct 5, 2022
運用期間 3.5 years
タイプ internet

技術仕様

分類 Payload
質量 305.00 kg
乾燥質量 290.00 kg
総質量 305.00 kg
長さ 0.20 m
直径 2.80 m
スパン 9.00 m
形状 Box + pan
製造者 SPXS
バスタイプ Starlink
フェーズステータス In Orbit
所有者/国 SPXS/US

Most Searched